Location: Maccacari
(45.1333°N, 11.1333°E)
Time: 16:26:57
(UTC+00:00)

USA 234 - Pass Details

Date: 25 January 2021
Orbit: 1100 x 1107 km, 123.0° (Epoch: 01 March)

Event Time Altitude Azimuth Distance (km) Brightness Sun altitude
Exits shadow 18:32:15 33° 38° (NE) 1,759 4.0 -24.4°
Maximum altitude 18:33:33 36° 14° (NNE) 1,672 4.0 -24.6°
Drops below altitude 10° 18:39:23 10° 311° (NW) 2,967 6.1 -25.7°
Sets 18:42:04 0° 303° (WNW) 3,927 7.0 -26.1°
